Regional Weather Roundup
Issued by NWS Charleston, WV

Home | Current Version | Previous Version | Graphics & Text | Print | Product List | Glossary On
Versions: 1 2 3 4 5 6 7 8 9 10 11 12 13 14 15 16 17 18 19 20 21 22 23 24 25 26 27 28 29 30 31 32 33 34 35 36 37 38 39 40 41 42 43 44 45 46 47 48 49 50
000
ASUS41 KRLX 272010
RWRRLX
West Virginia Regional Weather Roundup
National Weather Service Charleston WV
400 PM EDT THU AUG 27 2015

Note: "fair" indicates few or no clouds below 12,000 feet with no
significant weather and/or obstructions to visibility.

WVZ003-272100-
Northern Panhandle of West Virginia

CITY           SKY/WX    TMP DP  RH WIND       PRES   REMARKS
WHEELING       CLOUDY    70  54  56 CALM      30.15F
$$

WVZ009-272100-
Northwest West Virginia

CITY           SKY/WX    TMP DP  RH WIND       PRES   REMARKS
PARKERSBURG    MOSUNNY   76  53  44 VRB5      30.15F
$$

WVZ006-272100-
Western West Virginia

CITY           SKY/WX    TMP DP  RH WIND       PRES   REMARKS
HUNTINGTON     MOSUNNY   76  54  46 N7        30.11F
$$

WVZ015-272100-
West Central West Virginia

CITY           SKY/WX    TMP DP  RH WIND       PRES   REMARKS
CHARLESTON     PTSUNNY   76  54  46 N5        30.13F
$$

WVZ022-031-272100-
North Central West Virginia

CITY           SKY/WX    TMP DP  RH WIND       PRES   REMARKS
CLARKSBURG     PTSUNNY   73  50  44 NW6       30.14F
MORGANTOWN     CLOUDY    74  51  44 VRB5      30.16F
$$

WVZ025-035-042-045-272100-
Southern West Virginia

CITY           SKY/WX    TMP DP  RH WIND       PRES   REMARKS
BECKLEY        PTSUNNY   73  51  46 N9        30.17F
LOGAN          PTSUNNY   72  55  56 CALM      30.14F
BLUEFIELD      PTSUNNY   75  51  43 VRB5      30.17F
LEWISBURG      SUNNY     76  51  41 CALM      30.15F
$$

WVZ047-272100-
Northern Mountains of West Virginia

CITY           SKY/WX    TMP DP  RH WIND       PRES   REMARKS
ELKINS         PTSUNNY   71  50  47 VRB3      30.17F
$$

WVZ052-272100-
Eastern Panhandle of West Virginia

CITY           SKY/WX    TMP DP  RH WIND       PRES   REMARKS
MARTINSBURG    CLOUDY    76  53  44 NW9       30.11F
PETERSBURG     CLOUDY    76  53  44 N6        30.12F
$$



USA.gov is the U.S. government's official web portal to all federal, state and local government web resources and services.